User: anonymous   Login
Location: Bluff Heights
(33.7692°N, 118.1592°W)
Time: 12:35:35
(UTC+00:00)
Language:

Tiros 1 - Orbit

View from above orbital plane
View from above orbital plane
View from above satellite
View from above satellite

Ground track
Ground track

The orbit data is extracted from the following two-line orbital elements,

1    29U 60002B   21214.15052006 -.00000119  00000-0  13217-4 0  9998
2    29  48.3788 170.2895 0024023 191.2084 168.8295 14.74442771279265
Epoch (UTC): 02 August 2021 03:36:44
Eccentricity: 0.0024023
inclination: 48.3788°
perigee height: 630 km
apogee height: 664 km
right ascension of ascending node: 170.2895°
argument of perigee: 191.2084°
revolutions per day: 14.74442771
mean anomaly at epoch: 168.8295°
orbit number at epoch: 27926

The dashed part of the orbit path shows where the satellite is in the earth's shadow,  

DLR